{"data":{"norad_id":49211,"epoch":"2026-09-19T19:12:12.528000Z","epoch_age_seconds":71641,"freshness":"FRESH","line1":"1 49211U 21083AB  26262.80014500  .00000414  00000+0  10980-2 0  9995","line2":"2 49211  87.8921 301.4008 0001567 101.2071 258.9234 13.13469285243320","mean_motion":13.13469285,"eccentricity":0.0001567,"inclination_deg":87.8921,"raan_deg":301.4008,"arg_perigee_deg":101.2071,"mean_anomaly_deg":258.9234,"bstar":0.001098,"rev_number":24332,"period_min":109.63332119335,"perigee_km":1208.5791288623,"apogee_km":1210.9571783374,"semimajor_km":7587.9051535998,"source":"CELESTRAK","updated_at":"2026-09-20T09:00:44.665835Z"}}